{"data":{"norad_id":54196,"epoch":"2026-09-20T11:49:47.254656Z","epoch_age_seconds":89839,"freshness":"FRESH","line1":"1 54196U 22141AR  26263.49290804  .00000559  00000+0  26932-4 0  9994","line2":"2 54196  53.1589 187.9319 0001321  94.2154 265.9001 15.35398738215562","mean_motion":15.35398738,"eccentricity":0.0001321,"inclination_deg":53.1589,"raan_deg":187.9319,"arg_perigee_deg":94.2154,"mean_anomaly_deg":265.9001,"bstar":2.6932e-5,"rev_number":21556,"period_min":93.786712491098,"perigee_km":458.83310652812,"apogee_km":460.63967267765,"semimajor_km":6837.8733896029,"source":"CELESTRAK","updated_at":"2026-09-21T09:00:33.115770Z"}}